CAPE
206 208 208 222 331 256 261 247 187 90 35 0 2 0 0 0 0 0 0 0 0 0 0 0 0 0 0 0 0 0 0 0 0 0 0 0 0 0 0 0 0 0 0
206 142 112 82 100 18 49 133 112 252 67 1 0 0 0 0 0 0 0 0 0 0 0 0 0 0 0 0 0 0 0 0 0 0 0 0 0 0 0 0 0 0 0
365 195 227 267 20 37 21 164 100 0 0 0 0 0 0 0 0 0 0 0 0 0 0 0 0 0 0 0 0 0 0 0 0 0 0 0 0 0 0 0 0 0 0
388 387 354 159 38 0 0 0 0 0 0 0 0 0 0 0 0 0 0 0 0 0 0 0 0 0 0 0 1 0 0 0 5 4 5 5 0 0 0 2 0 0 0
503 357 84 2 1 1 0 1 1 1 1 1 0 0 0 0 0 0 0 0 0 0 0 0 0 0 0 2 5 2 4 5 2 0 0 0 0 0 0 0 0 0 0
94 6 0 2 2 1 0 0 0 0 0 0 0 0 0 0 0 0 0 0 0 0 0 0 0 0 0 0 5 8 13 7 0 0 0 0 0 0 0 0 0 0 0
0 0 0 0 0 0 0 0 0 0 0 0 0 0 0 0 0 0 0 0 0 0 0 0 0 0 0 0 0 0 0 0 0 0 0 0 0 0 0 0 0 0 0
0 0 0 0 0 0 0 0 0 0 0 0 0 0 0 0 0 0 0 0 0 0 0 0 0 0 0 0 0 0 0 0 0 0 0 0 0 0 0 0 0 0 0
0 0 0 0 0 0 0 0 0 0 0 0 0 0 0 0 0 0 0 0 0 0 0 0 0 0 0 0 0 0 0 0 0 0 0 0 0 0 0 0 0 0 0
0 0 0 0 0 0 0 0 0 0 0 0 0 0 0 0 0 0 0 0 0 0 0 0 0 0 0 0 0 0 0 0 0 0 0 0 0 0 0 0 0 0 0
0 0 0 0 0 0 0 0 0 0 0 0 0 0 0 0 0 0 0 0 0 0 0 0 0 0 0 0 0 0 0 0 0 0 0 0 0 0 2 0 0 0 0
0 0 0 0 0 0 0 0 0 0 0 0 0 0 0 0 0 0 0 0 0 0 0 0 0 0 0 0 0 0 0 0 0 0 0 0 0 0 0 0 0 0 0
0 0 0 0 0 0 0 0 0 0 0 0 0 0 0 0 0 0 0 0 0 0 0 0 0 0 0 0 0 0 0 0 0 0 0 0 0 1 0 0 4 0 0
0 0 0 0 0 0 0 0 0 0 0 0 0 0 0 0 0 0 0 0 0 0 0 0 0 0 0 0 0 0 0 0 0 0 0 0 0 0 1 0 1 0 0
0 0 0 0 0 0 0 0 0 0 0 0 0 0 0 0 0 0 0 0 0 0 0 0 0 0 0 0 0 0 0 0 0 0 0 1 1 0 0 3 1 0 0
0 0 0 0 0 0 0 0 0 0 0 0 0 0 0 0 0 0 0 0 0 0 0 0 0 0 0 0 0 0 0 0 0 0 0 0 1 0 0 1 0 0 0
0 0 0 0 0 0 0 0 0 0 0 0 0 0 0 0 0 0 0 0 0 0 0 0 0 0 0 0 0 0 0 0 1 0 0 0 0 0 2 2 0 1 0
0 0 0 0 0 0 0 0 0 0 0 0 0 0 0 0 0 0 0 0 0 0 0 0 0 0 0 0 0 0 0 0 0 0 0 0 0 0 1 0 0 0 0
0 0 0 0 0 0 0 0 0 0 0 0 0 0 0 0 0 0 0 0 0 0 0 0 0 0 0 0 0 0 0 0 0 0 0 0 0 0 0 1 0 0 0
0 0 0 1 0 0 0 0 0 0 0 0 0 0 0 0 0 0 0 0 0 0 0 0 0 0 0 0 0 0 0 0 0 0 0 0 0 0 0 0 1 0 0
0 0 0 0 0 0 0 0 0 0 0 0 0 0 0 0 0 0 0 0 0 0 0 0 0 0 0 0 0 0 0 0 0 0 0 0 0 0 0 0 0 1 0
0 0 0 0 0 0 0 0 0 0 0 0 0 0 0 0 0 0 0 0 0 0 0 0 0 0 0 0 0 0 0 0 0 0 0 0 0 0 0 0 1 0 1
0 0 0 0 0 0 0 0 0 0 0 0 0 0 0 0 0 0 0 0 0 0 0 0 0 0 0 0 0 0 0 0 0 0 0 0 0 0 0 0 0 0 0
0 0 0 0 0 0 0 0 0 0 0 0 0 0 0 0 0 0 0 0 0 0 0 0 0 0 0 0 0 0 0 0 0 0 0 0 0 0 0 0 0 0 0
0 0 0 0 0 0 0 0 0 0 0 0 0 0 0 0 0 0 0 0 0 0 0 0 0 0 0 0 0 0 0 0 0 0 0 0 0 0 0 0 0 0 0
0 0 0 0 0 0 0 0 0 0 0 0 0 0 0 0 0 0 0 0 0 0 0 0 0 0 0 0 0 0 0 0 0 0 0 0 0 0 0 0 0 0 0
CIN
-203 -184 -155 -165 -92 -64 -66 -81 -106 -174 -203 0 -250 0 0 0 0 0 0 0 0 0 0 0 0 0 0 0 0 0 0 0 0 0 0 0 0 0 0 0 0 0 0
-223 -208 -131 -119 -102 -51 -37 -79 -153 -106 -183 -12 0 0 0 0 0 0 0 0 0 0 0 0 0 0 0 0 0 0 0 0 0 0 0 0 0 0 0 0 0 0 0
-76 -123 -168 -99 -203 -83 -70 -128 -183 0 0 0 0 0 0 0 0 0 0 0 0 0 0 0 0 0 0 0 0 0 0 0 0 0 0 0 0 0 0 0 0 0 0
-145 -142 -185 -221 -277 0 0 0 0 0 0 0 0 0 0 0 0 0 0 0 0 0 0 0 0 0 0 0 -3 -2 0 0 -33 -28 -21 -23 0 0 -5 -22 -3 0 0
-221 -272 -338 0 0 0 0 0 0 0 0 0 0 0 0 0 0 0 0 0 0 0 0 0 0 0 0 -16 -8 -20 -28 -23 -23 -1 0 0 0 0 0 0 0 0 0
-386 -286 0 0 0 0 0 0 0 0 0 0 0 0 0 0 0 0 0 0 0 0 0 0 0 0 0 -18 -21 -24 -19 -15 -1 0 0 0 0 0 0 0 0 0 -14
0 0 0 0 0 0 0 0 0 0 0 0 0 0 0 0 0 0 0 0 0 0 0 0 0 0 0 0 0 0 0 0 0 0 0 0 0 0 0 0 0 0 0
0 0 0 0 0 0 0 0 0 0 0 0 0 0 0 0 0 0 0 0 0 0 0 0 0 0 0 0 0 0 0 0 0 0 0 0 0 0 0 0 0 0 0
0 0 0 0 0 0 0 0 0 0 0 0 0 0 0 0 0 0 0 0 0 0 0 0 0 0 0 0 0 0 0 0 0 0 0 0 0 0 0 0 0 0 0
0 0 0 0 0 0 0 0 0 0 0 0 0 0 0 0 0 0 0 0 0 0 0 0 0 0 0 0 0 0 0 0 0 0 0 0 0 0 0 0 0 0 0
0 0 0 0 0 0 0 0 0 0 0 0 0 0 0 0 0 0 0 0 0 0 0 0 0 0 0 0 0 0 0 0 0 0 0 0 0 0 -3 -2 0 0 0
0 0 0 0 0 0 0 0 0 0 0 0 0 0 0 0 0 0 0 0 0 0 0 0 0 0 0 0 0 0 0 0 0 0 0 0 0 0 0 0 -1 0 0
0 0 0 0 0 0 0 0 0 0 0 0 0 0 0 0 0 0 0 0 0 0 0 0 0 0 0 0 0 0 0 0 0 0 0 -1 0 -1 0 -6 -5 0 0
0 0 0 0 0 0 0 0 0 0 0 0 0 0 0 0 0 0 0 0 0 0 0 0 0 0 0 0 0 0 0 0 0 -1 0 0 0 0 0 0 -1 0 0
0 0 0 0 0 0 0 0 0 0 0 0 0 0 0 0 0 0 0 0 0 0 0 0 0 0 0 0 0 0 0 0 0 0 0 0 0 0 0 0 -3 -3 0
0 0 0 0 0 0 0 0 0 0 0 0 0 0 0 0 0 0 0 0 0 0 0 0 0 0 0 0 0 0 0 0 0 0 0 0 0 0 0 -2 0 0 0
0 0 0 0 0 0 0 0 0 0 0 0 0 0 0 0 0 0 0 0 0 0 0 0 0 0 0 0 0 0 0 0 0 -1 0 0 0 0 0 0 0 0 0
0 0 0 0 0 0 0 0 0 0 0 0 0 0 0 0 0 0 0 0 0 0 0 0 0 0 0 0 0 0 0 0 0 0 0 0 0 0 0 0 0 0 0
0 0 0 0 0 0 0 0 0 0 0 0 0 0 0 0 0 0 0 0 0 0 0 0 0 0 0 0 0 0 0 0 0 0 0 0 0 0 0 0 0 0 0
0 0 0 0 0 0 0 0 0 0 0 0 0 0 0 0 0 0 0 0 0 0 0 0 0 0 0 0 0 0 0 0 0 0 0 0 0 0 0 0 0 0 0
0 0 0 0 0 0 0 0 0 0 0 0 0 0 0 0 0 0 0 0 0 0 0 0 0 0 0 0 0 0 0 0 0 0 0 0 0 0 0 0 0 0 0
0 0 0 0 0 0 0 0 0 0 0 0 0 0 0 0 0 0 0 0 0 0 0 0 0 0 0 0 0 0 0 0 0 0 0 0 0 0 0 0 0 0 0
0 0 0 0 0 0 0 0 0 0 0 0 0 0 0 0 0 0 0 0 0 0 0 0 0 0 0 0 0 0 0 0 0 0 0 0 0 0 0 0 0 0 0
0 0 0 0 0 0 0 0 0 0 0 0 0 0 0 0 0 0 0 0 0 0 0 0 0 0 0 0 0 0 0 0 0 0 0 0 0 0 0 0 0 0 0
0 0 0 0 0 0 0 0 0 0 0 0 0 0 0 0 0 0 0 0 0 0 0 0 0 0 0 0 0 0 0 0 0 0 0 0 0 0 0 0 0 0 0
0 0 0 0 0 0 0 0 0 0 0 0 0 0 0 0 0 0 0 0 0 0 0 0 0 0 0 0 0 0 0 0 0 0 0 0 0 0 0 0 0 0 0
Wind_Speed
18 17 19 16 14 14 9 5 4 5 6 8 7 7 9 10 11 13 12 11 12 14 15 16 17 18 19 26 26 24 24 25 31 31 27 26 26 27 28 27 27 24 24
17 12 12 17 19 27 19 6 6 8 8 8 8 9 11 11 11 11 11 11 11 14 16 15 16 19 23 25 26 24 25 25 29 33 31 31 32 31 31 31 30 26 26
16 10 7 12 8 7 5 5 6 6 8 9 10 11 11 11 11 12 13 12 13 13 13 14 19 21 23 26 25 25 27 28 29 33 35 33 34 33 33 32 32 30 29
5 4 3 2 2 2 3 5 8 9 10 12 13 12 13 13 13 13 12 13 13 14 15 18 21 21 24 25 26 28 29 29 29 31 34 37 35 34 35 37 37 32 34
4 4 2 2 3 4 7 8 9 10 12 12 12 14 14 13 13 13 13 13 13 16 19 20 21 23 23 24 27 27 28 30 31 34 36 38 39 39 38 38 37 34 30
2 2 3 4 5 8 8 9 11 12 11 11 13 13 13 14 12 12 12 14 16 18 21 22 23 24 26 27 28 29 29 32 34 36 39 40 41 39 38 37 36 34 36
5 5 5 5 6 7 7 8 9 9 10 12 12 12 13 13 11 13 14 16 18 20 22 24 26 27 30 32 35 36 36 37 36 38 41 42 43 40 38 38 35 33 33
7 6 5 4 5 5 7 6 7 8 10 11 12 12 13 13 13 14 15 17 20 23 24 26 29 31 33 37 40 41 41 40 41 40 42 43 42 40 37 36 34 31 28
7 6 4 3 4 4 5 6 8 9 11 12 13 13 13 13 13 15 17 19 22 25 27 29 31 33 36 40 42 44 46 45 42 42 42 41 43 42 38 36 32 28 28
5 5 4 4 5 5 6 7 9 10 12 12 14 13 13 14 15 17 19 22 25 28 29 30 32 34 37 39 42 43 46 46 46 47 44 42 40 38 37 33 29 27 24
3 3 4 3 4 5 7 9 10 12 12 12 14 13 14 15 17 18 21 24 27 30 32 33 34 36 39 39 40 41 42 44 46 45 44 42 39 37 34 29 25 23 19
2 2 2 3 5 7 8 10 11 10 12 14 15 15 15 17 18 21 23 26 29 31 34 35 35 38 38 39 40 42 44 44 44 43 43 41 39 35 32 29 22 19 19
2 3 4 6 7 8 9 9 11 12 12 14 15 16 17 19 21 24 27 29 31 33 33 36 38 39 39 38 41 43 43 44 45 44 43 40 38 36 31 28 22 16 15
5 6 6 7 8 10 11 11 13 13 14 16 17 19 20 23 25 27 28 30 32 33 34 37 38 38 38 40 41 42 42 43 43 42 41 40 38 35 31 23 21 13 11
7 7 7 9 9 11 13 14 14 16 15 17 18 20 23 26 27 27 29 32 34 34 35 37 39 40 42 43 43 43 43 43 42 41 41 41 38 34 31 22 15 11 11
9 10 11 11 13 13 14 16 17 16 17 17 18 20 21 21 23 27 31 32 34 35 36 38 40 42 44 45 45 45 44 42 41 41 40 40 37 33 28 17 17 11 9
9 11 13 14 15 17 17 17 19 18 18 19 20 20 20 23 25 29 31 32 34 34 37 38 40 42 44 44 44 44 44 41 40 39 40 38 37 33 26 14 11 11 12
12 14 15 17 17 17 19 20 21 22 23 23 21 21 20 22 27 31 32 32 34 35 36 38 40 41 42 43 43 42 41 40 39 39 38 36 34 32 35 11 8 10 13
14 16 16 17 19 20 21 22 23 24 25 25 24 22 21 25 29 33 33 33 35 37 37 38 39 40 41 41 40 39 38 38 37 37 35 32 32 33 32 28 11 10 13
16 17 19 21 21 22 23 24 25 25 26 26 27 26 26 30 35 35 34 34 35 37 38 39 38 39 40 40 39 37 38 37 35 34 32 31 31 32 30 29 28 19 16
18 20 20 21 22 23 24 25 25 26 27 28 29 28 29 32 34 34 33 35 36 37 38 37 38 39 39 38 36 37 37 34 33 31 31 32 32 33 31 30 29 29 21
18 19 20 21 22 23 25 26 26 28 29 30 30 30 31 32 34 34 35 35 36 35 35 37 38 38 37 36 38 36 34 32 32 30 32 33 33 32 32 31 30 30 28
19 20 21 22 23 25 27 28 29 30 31 32 33 34 35 35 35 36 36 36 35 35 36 37 37 36 36 35 33 32 32 32 29 29 33 33 34 35 32 31 31 29 27
21 22 23 25 26 29 30 30 32 33 33 34 35 36 36 36 37 36 36 36 36 36 35 35 36 36 34 33 32 30 28 28 28 29 33 36 35 34 33 33 32 31 30
24 26 28 30 31 32 33 34 34 35 36 36 37 37 37 37 37 37 37 37 37 35 36 36 36 34 34 34 32 30 29 30 32 37 36 35 35 35 33 32 32 31 31
28 29 31 33 34 35 36 37 37 38 38 38 38 38 37 39 38 38 39 37 35 36 37 36 34 33 33 32 30 31 33 36 37 37 35 33 34 32 30 31 32 31 30
Wind_Direction
208 217 218 229 231 261 263 247 274 293 306 310 321 320 316 318 319 318 317 317 317 318 326 317 320 323 321 322 321 317 313 312 312 317 317 318 316 314 312 312 310 304 303
215 252 246 251 281 274 225 261 276 300 310 319 326 327 327 324 323 320 318 318 317 320 323 323 322 324 322 323 322 318 317 315 314 313 317 315 311 310 308 308 310 302 300
279 207 217 215 224 263 259 293 313 320 324 325 327 327 330 329 327 328 326 327 327 327 327 325 324 324 325 327 325 320 318 318 316 315 315 315 313 312 308 307 308 303 302
275 301 306 248 265 300 331 328 329 332 329 326 327 329 330 332 332 333 335 332 330 332 331 328 328 326 326 325 324 322 320 318 317 315 315 315 315 316 312 310 309 307 304
289 295 310 343 353 348 342 337 339 336 333 333 334 336 338 337 336 334 335 337 338 334 331 330 329 327 327 325 325 324 322 320 318 315 314 315 315 315 314 313 309 308 308
291 306 337 336 337 339 341 337 333 332 337 338 338 339 339 338 345 347 347 340 335 333 331 332 333 332 329 326 324 321 317 316 315 315 314 313 313 313 313 310 309 306 305
315 314 314 317 325 336 341 339 340 343 344 342 344 345 344 347 348 346 342 338 335 335 335 334 333 336 338 335 331 330 329 326 322 319 316 316 314 313 312 310 307 304 303
302 300 300 309 322 338 342 345 347 347 345 344 343 343 343 343 344 344 345 343 339 338 340 339 337 334 334 332 329 327 325 324 322 321 318 317 316 314 309 307 304 302 303
290 283 285 299 314 330 337 341 341 341 340 338 337 337 340 343 349 346 342 341 339 337 337 337 335 333 332 332 330 327 326 325 325 322 319 316 315 313 313 309 302 298 299
268 276 284 299 308 320 328 332 333 335 335 338 338 345 353 350 349 348 344 338 334 334 336 337 337 335 334 334 332 330 328 328 329 328 327 324 323 318 313 306 300 289 294
214 251 276 282 302 316 324 324 326 332 339 343 344 347 346 346 345 345 341 336 334 334 333 334 336 336 335 335 335 333 331 330 329 329 328 327 326 326 321 314 303 293 283
243 256 276 292 307 313 317 321 325 329 330 330 335 336 339 340 343 342 339 337 335 334 333 334 335 335 336 336 337 337 337 336 333 331 331 330 328 327 327 323 309 289 291
258 270 286 302 307 311 317 322 322 323 323 324 325 327 329 336 337 338 337 334 333 333 335 334 335 335 336 338 339 339 339 339 337 334 332 331 329 329 323 324 317 299 279
270 281 289 297 307 316 322 323 321 320 322 320 320 321 324 327 329 332 333 332 332 333 336 335 336 336 338 338 339 340 341 341 339 338 336 334 331 328 327 321 318 300 292
275 282 289 302 307 315 321 319 321 325 322 318 320 321 320 321 326 331 330 329 329 331 333 335 335 336 336 337 338 340 341 342 341 340 338 337 333 329 328 323 313 298 287
285 291 295 297 302 308 311 319 332 331 330 327 326 326 329 330 330 330 328 328 329 331 331 332 333 335 335 337 337 338 341 341 341 341 340 338 336 332 330 324 328 330 313
292 298 305 305 305 306 310 312 316 325 330 327 328 330 330 329 330 329 328 329 332 334 332 332 333 334 335 337 338 339 338 340 340 341 340 340 340 334 328 321 310 315 311
306 308 306 309 312 317 319 319 316 315 316 318 321 323 327 330 330 329 329 329 329 332 332 332 332 334 336 337 338 339 339 339 339 340 341 342 343 336 312 321 313 315 314
311 310 311 314 317 318 318 318 317 317 317 319 320 322 325 327 329 329 330 329 329 329 331 331 332 334 336 337 337 338 338 338 338 339 341 341 341 329 307 305 321 316 312
319 317 314 312 313 316 316 315 315 316 317 318 319 320 321 324 324 326 328 328 329 330 330 330 332 334 335 336 336 337 337 337 338 338 339 337 329 320 310 298 296 308 308
313 315 315 315 315 316 316 317 318 319 318 319 320 322 323 323 325 326 327 328 328 329 329 331 332 333 335 335 336 335 335 335 336 337 335 331 316 306 301 297 295 293 301
323 323 322 321 320 320 319 320 321 321 321 321 322 323 324 324 325 325 326 327 328 329 331 331 331 333 334 335 334 334 334 334 335 334 329 322 307 302 295 293 293 293 285
330 327 325 325 324 323 321 321 322 322 321 321 321 322 323 324 324 325 325 327 329 330 331 331 332 333 333 334 335 335 334 333 334 332 322 313 304 292 290 288 288 287 286
333 330 326 324 323 322 323 322 322 322 322 322 322 323 323 324 324 325 326 327 328 329 330 332 332 333 334 335 335 335 335 335 332 328 315 299 297 290 285 284 281 279 275
331 328 325 324 323 323 323 322 323 323 322 322 322 323 323 323 324 325 326 327 327 329 330 331 332 333 333 334 334 334 334 332 325 311 305 297 291 285 279 278 275 273 272
329 328 326 325 324 323 322 322 322 322 321 321 322 322 323 322 323 324 325 326 328 328 329 330 332 333 334 334 334 333 330 321 309 299 301 297 290 283 281 274 268 267 267